| time (UTC) | temp F | wind direction | speed MPH | gust MPH | rain 1hr in | rain 24hr in | rain mn in | humidity % | barometer mb |
| 20260905084937 | 60 | 112 | 1.0 | 3.0 | 0.00 | 0.00 | 0.00 | 88 | 1015.1 |
| 20260905083917 | 61 | 123 | 2.0 | 3.0 | 0.00 | 0.00 | 0.00 | 85 | 1015.2 |
| 20260905082917 | 61 | 128 | 1.0 | 3.0 | 0.00 | 0.00 | 0.00 | 87 | 1015.4 |
| 20260905081917 | 61 | 106 | 2.0 | 4.0 | 0.00 | 0.00 | 0.00 | 87 | 1015.6 |
| 20260905080917 | 61 | 105 | 1.0 | 2.0 | 0.00 | 0.00 | 0.00 | 88 | 1015.5 |
| 20260905075917 | 61 | 108 | 2.0 | 3.0 | 0.00 | 0.00 | 0.00 | 87 | 1015.6 |
| 20260905074917 | 61 | 114 | 1.0 | 2.0 | 0.00 | 0.00 | 0.00 | 88 | 1015.7 |
| 20260905073918 | 62 | 101 | 2.0 | 3.0 | 0.00 | 0.00 | 0.00 | 89 | 1015.7 |
| 20260905072916 | 62 | 112 | 2.0 | 3.0 | 0.00 | 0.00 | 0.00 | 89 | 1015.7 |
| 20260905071937 | 62 | 106 | 2.0 | 2.0 | 0.00 | 0.00 | 0.00 | 89 | 1015.7 |
| 20260905070917 | 63 | 105 | 2.0 | 4.0 | 0.00 | 0.00 | 0.00 | 90 | 1015.5 |
| 20260905065937 | 63 | 101 | 1.0 | 2.0 | 0.00 | 0.00 | 0.00 | 89 | 1015.2 |
| 20260905064917 | 63 | 109 | 1.0 | 2.0 | 0.00 | 0.00 | 0.00 | 90 | 1015.3 |
| 20260905063917 | 63 | 107 | 2.0 | 3.0 | 0.00 | 0.00 | 0.00 | 89 | 1015.3 |
| 20260905062917 | 64 | 107 | 1.0 | 1.0 | 0.00 | 0.00 | 0.00 | 92 | 1015.1 |
| 20260905061917 | 65 | 107 | 0.0 | 1.0 | 0.00 | 0.00 | 0.00 | 93 | 1014.9 |
| 20260905060917 | 66 | 0.0 | 0.0 | 0.00 | 0.00 | 0.00 | 93 | 1014.8 | |
| 20260905055937 | 66 | 71 | 1.0 | 2.0 | 0.00 | 0.00 | 0.00 | 92 | 1014.9 |
| 20260905054917 | 67 | 342 | 0.0 | 1.0 | 0.00 | 0.00 | 0.00 | 92 | 1014.8 |
| 20260905053917 | 67 | 339 | 1.0 | 2.0 | 0.00 | 0.00 | 0.00 | 90 | 1014.6 |
| 20260905053017 | 67 | 348 | 1.0 | 3.0 | 0.00 | 0.00 | 0.00 | 89 | 1014.5 |
| 20260905051917 | 68 | 336 | 0.0 | 2.0 | 0.00 | 0.00 | 0.00 | 87 | 1014.4 |
| 20260905050917 | 69 | 0.0 | 1.0 | 0.00 | 0.00 | 0.00 | 86 | 1014.4 | |
| 20260905045917 | 70 | 0.0 | 0.0 | 0.00 | 0.00 | 0.00 | 84 | 1014.3 | |
| 20260905044917 | 71 | 331 | 1.0 | 2.0 | 0.00 | 0.00 | 0.00 | 83 | 1014.2 |
| 20260905043916 | 72 | 301 | 0.0 | 2.0 | 0.00 | 0.00 | 0.00 | 80 | 1014.1 |
| 20260905042917 | 72 | 174 | 0.0 | 1.0 | 0.00 | 0.00 | 0.00 | 80 | 1014.0 |
| 20260905041917 | 73 | 232 | 0.0 | 1.0 | 0.00 | 0.00 | 0.00 | 78 | 1014.0 |
| 20260905040917 | 73 | 237 | 1.0 | 2.0 | 0.00 | 0.00 | 0.00 | 81 | 1014.0 |
| 20260905035916 | 73 | 269 | 1.0 | 2.0 | 0.00 | 0.00 | 0.00 | 82 | 1013.8 |
| 20260905034936 | 72 | 216 | 2.0 | 4.0 | 0.00 | 0.00 | 0.00 | 83 | 1013.7 |
| 20260905033917 | 72 | 207 | 3.0 | 4.0 | 0.00 | 0.00 | 0.00 | 84 | 1013.8 |
| 20260905032917 | 73 | 219 | 3.0 | 5.0 | 0.00 | 0.00 | 0.00 | 82 | 1013.7 |
| 20260905031916 | 72 | 232 | 2.0 | 5.0 | 0.00 | 0.00 | 0.00 | 83 | 1013.7 |
| 20260905030937 | 72 | 223 | 3.0 | 6.0 | 0.00 | 0.00 | 0.00 | 84 | 1013.6 |
| 20260905025917 | 72 | 218 | 2.0 | 4.0 | 0.00 | 0.00 | 0.00 | 83 | 1013.8 |
| 20260905024916 | 73 | 205 | 2.0 | 3.0 | 0.00 | 0.00 | 0.00 | 83 | 1013.7 |
| 20260905023918 | 73 | 188 | 2.0 | 6.0 | 0.00 | 0.00 | 0.00 | 82 | 1013.7 |
| 20260905022937 | 72 | 223 | 3.0 | 5.0 | 0.00 | 0.00 | 0.00 | 84 | 1013.6 |
| 20260905021917 | 70 | 213 | 2.0 | 5.0 | 0.00 | 0.00 | 0.00 | 86 | 1013.7 |
| 20260905020917 | 70 | 201 | 1.0 | 3.0 | 0.00 | 0.00 | 0.00 | 87 | 1013.7 |
| 20260905015937 | 70 | 213 | 4.0 | 6.0 | 0.00 | 0.00 | 0.00 | 87 | 1013.8 |
| 20260905014957 | 70 | 199 | 4.0 | 8.0 | 0.00 | 0.00 | 0.00 | 87 | 1013.7 |
| 20260905013916 | 70 | 225 | 2.0 | 4.0 | 0.00 | 0.00 | 0.00 | 88 | 1013.7 |
| 20260905012917 | 70 | 178 | 2.0 | 4.0 | 0.00 | 0.00 | 0.00 | 87 | 1013.8 |
| 20260905011917 | 70 | 194 | 4.0 | 5.0 | 0.00 | 0.00 | 0.00 | 87 | 1013.8 |
| 20260905010917 | 70 | 206 | 2.0 | 7.0 | 0.00 | 0.00 | 0.00 | 87 | 1013.7 |
| 20260905005916 | 70 | 214 | 2.0 | 4.0 | 0.00 | 0.00 | 0.00 | 87 | 1013.9 |
| 20260905004917 | 70 | 202 | 3.0 | 5.0 | 0.00 | 0.00 | 0.00 | 86 | 1013.9 |
| 20260905003917 | 70 | 198 | 3.0 | 5.0 | 0.00 | 0.00 | 0.00 | 84 | 1014.0 |
| 20260905002917 | 71 | 212 | 3.0 | 5.0 | 0.00 | 0.00 | 0.00 | 85 | 1014.0 |
| 20260905001936 | 70 | 203 | 2.0 | 4.0 | 0.00 | 0.00 | 0.00 | 84 | 1014.0 |
| 20260905000916 | 70 | 207 | 3.0 | 5.0 | 0.00 | 0.00 | 0.00 | 84 | 1014.1 |
| 20260904235917 | 71 | 217 | 2.0 | 4.0 | 0.00 | 0.00 | 0.00 | 84 | 1014.3 |
| 20260904234916 | 71 | 211 | 3.0 | 5.0 | 0.00 | 0.00 | 0.00 | 84 | 1014.3 |
| 20260904233916 | 71 | 203 | 2.0 | 4.0 | 0.00 | 0.00 | 0.00 | 84 | 1014.5 |
| 20260904232916 | 71 | 189 | 4.0 | 6.0 | 0.00 | 0.00 | 0.00 | 84 | 1014.5 |
| 20260904231916 | 70 | 197 | 2.0 | 5.0 | 0.00 | 0.00 | 0.00 | 84 | 1014.7 |
| 20260904230916 | 70 | 209 | 2.0 | 5.0 | 0.00 | 0.00 | 0.00 | 85 | 1014.8 |
| 20260904225917 | 70 | 183 | 2.0 | 3.0 | 0.00 | 0.00 | 0.00 | 86 | 1014.9 |
| 20260904224936 | 70 | 212 | 2.0 | 2.0 | 0.00 | 0.00 | 0.00 | 87 | 1015.1 |
| 20260904224618 | 70 | 209 | 3.0 | 5.0 | 0.00 | 0.00 | 0.00 | 86 | 1015.1 |
| 20260904223618 | 70 | 192 | 2.0 | 3.0 | 0.00 | 0.00 | 0.00 | 87 | 1015.1 |
| 20260904222657 | 71 | 198 | 1.0 | 2.0 | 0.00 | 0.00 | 0.00 | 87 | 1015.1 |
| 20260904221618 | 71 | 224 | 2.0 | 4.0 | 0.00 | 0.00 | 0.00 | 87 | 1015.3 |
| 20260904220617 | 71 | 294 | 1.0 | 2.0 | 0.00 | 0.00 | 0.00 | 87 | 1015.3 |
| 20260904215617 | 71 | 237 | 1.0 | 2.0 | 0.00 | 0.00 | 0.00 | 87 | 1015.4 |
| 20260904214618 | 71 | 230 | 2.0 | 5.0 | 0.00 | 0.00 | 0.00 | 87 | 1015.2 |
| 20260904213616 | 70 | 200 | 2.0 | 3.0 | 0.00 | 0.00 | 0.00 | 91 | 1015.2 |
| 20260904212657 | 69 | 198 | 3.0 | 6.0 | 0.00 | 0.00 | 0.00 | 89 | 1015.1 |
| 20260904211617 | 70 | 176 | 1.0 | 4.0 | 0.00 | 0.00 | 0.00 | 87 | 1015.3 |
| 20260904210618 | 71 | 224 | 0.0 | 2.0 | 0.00 | 0.00 | 0.00 | 86 | 1015.4 |
| 20260904205638 | 71 | 200 | 1.0 | 3.0 | 0.00 | 0.00 | 0.00 | 87 | 1015.4 |
| 20260904204618 | 71 | 206 | 2.0 | 4.0 | 0.00 | 0.00 | 0.00 | 86 | 1015.4 |
| 20260904203618 | 72 | 230 | 1.0 | 3.0 | 0.00 | 0.00 | 0.00 | 84 | 1015.4 |
| 20260904202618 | 72 | 315 | 1.0 | 3.0 | 0.00 | 0.00 | 0.00 | 84 | 1015.1 |
| 20260904201618 | 71 | 278 | 1.0 | 2.0 | 0.00 | 0.00 | 0.00 | 84 | 1015.2 |
| 20260904200618 | 72 | 349 | 2.0 | 3.0 | 0.00 | 0.00 | 0.00 | 82 | 1015.2 |
| 20260904195638 | 71 | 322 | 1.0 | 2.0 | 0.00 | 0.00 | 0.00 | 83 | 1015.2 |
| 20260904194617 | 72 | 289 | 1.0 | 3.0 | 0.00 | 0.00 | 0.00 | 82 | 1015.2 |
| 20260904193618 | 72 | 221 | 1.0 | 2.0 | 0.00 | 0.00 | 0.00 | 81 | 1015.0 |
| 20260904192637 | 71 | 280 | 0.0 | 2.0 | 0.00 | 0.00 | 0.00 | 79 | 1015.0 |
| 20260904191617 | 72 | 266 | 0.0 | 2.0 | 0.00 | 0.00 | 0.00 | 77 | 1015.2 |
| 20260904190637 | 72 | 340 | 2.0 | 3.0 | 0.00 | 0.00 | 0.00 | 75 | 1015.3 |
| 20260904185618 | 72 | 324 | 1.0 | 3.0 | 0.00 | 0.00 | 0.00 | 75 | 1015.2 |
| 20260904184617 | 71 | 284 | 0.0 | 1.0 | 0.00 | 0.00 | 0.00 | 75 | 1015.1 |
| 20260904183617 | 70 | 275 | 0.0 | 1.0 | 0.00 | 0.00 | 0.00 | 72 | 1015.0 |
| 20260904182617 | 69 | 5 | 0.0 | 1.0 | 0.00 | 0.00 | 0.00 | 78 | 1015.0 |
| 20260904181618 | 67 | 0.0 | 0.0 | 0.00 | 0.00 | 0.00 | 77 | 1015.1 | |
| 20260904180618 | 65 | 0.0 | 0.0 | 0.00 | 0.00 | 0.00 | 77 | 1014.9 | |
| 20260904175657 | 64 | 113 | 0.0 | 2.0 | 0.00 | 0.00 | 0.00 | 75 | 1015.0 |
| 20260904174618 | 63 | 0.0 | 2.0 | 0.00 | 0.00 | 0.00 | 75 | 1014.9 | |
| 20260904173617 | 62 | 121 | 0.0 | 3.0 | 0.00 | 0.00 | 0.00 | 74 | 1014.8 |
| 20260904172618 | 62 | 100 | 2.0 | 4.0 | 0.00 | 0.00 | 0.00 | 74 | 1014.7 |
| 20260904171617 | 61 | 62 | 1.0 | 2.0 | 0.00 | 0.00 | 0.00 | 78 | 1014.7 |
| 20260904170617 | 60 | 86 | 1.0 | 3.0 | 0.00 | 0.00 | 0.00 | 73 | 1014.7 |
| 20260904165617 | 60 | 113 | 2.0 | 3.0 | 0.00 | 0.00 | 0.00 | 76 | 1014.4 |
| 20260904164658 | 60 | 107 | 2.0 | 3.0 | 0.00 | 0.00 | 0.00 | 75 | 1014.1 |
| 20260904163617 | 60 | 110 | 2.0 | 3.0 | 0.00 | 0.00 | 0.00 | 74 | 1014.3 |
| 20260904162618 | 59 | 70 | 1.0 | 2.0 | 0.00 | 0.00 | 0.00 | 73 | 1014.1 |
| 20260904161637 | 60 | 94 | 1.0 | 2.0 | 0.00 | 0.00 | 0.00 | 73 | 1014.2 |
| 20260904160618 | 60 | 86 | 1.0 | 2.0 | 0.00 | 0.00 | 0.00 | 72 | 1014.3 |
| 20260904155617 | 59 | 90 | 2.0 | 3.0 | 0.00 | 0.00 | 0.00 | 73 | 1014.2 |
| 20260904154618 | 59 | 105 | 3.0 | 3.0 | 0.00 | 0.00 | 0.00 | 72 | 1014.4 |
| 20260904153637 | 60 | 127 | 2.0 | 3.0 | 0.00 | 0.00 | 0.00 | 76 | 1014.1 |
| 20260904152617 | 60 | 110 | 2.0 | 3.0 | 0.00 | 0.00 | 0.00 | 76 | 1014.2 |
| 20260904151637 | 61 | 95 | 1.0 | 2.0 | 0.00 | 0.00 | 0.00 | 69 | 1014.1 |
| 20260904150617 | 61 | 133 | 2.0 | 3.0 | 0.00 | 0.00 | 0.00 | 72 | 1014.2 |
| 20260904145617 | 62 | 100 | 3.0 | 4.0 | 0.00 | 0.00 | 0.00 | 71 | 1014.2 |
| 20260904144618 | 62 | 104 | 2.0 | 3.0 | 0.00 | 0.00 | 0.00 | 70 | 1014.3 |
| 20260904143617 | 63 | 115 | 2.0 | 3.0 | 0.00 | 0.00 | 0.00 | 70 | 1014.3 |
| 20260904142617 | 63 | 120 | 2.0 | 3.0 | 0.00 | 0.00 | 0.00 | 65 | 1014.3 |
| 20260904141617 | 63 | 111 | 3.0 | 4.0 | 0.00 | 0.00 | 0.00 | 64 | 1014.2 |
| 20260904140618 | 61 | 100 | 2.0 | 3.0 | 0.00 | 0.00 | 0.00 | 68 | 1014.0 |
| 20260904135618 | 61 | 103 | 1.0 | 3.0 | 0.00 | 0.00 | 0.00 | 71 | 1014.3 |
| 20260904134617 | 60 | 113 | 1.0 | 3.0 | 0.00 | 0.00 | 0.00 | 71 | 1014.3 |
| 20260904133638 | 60 | 104 | 2.0 | 3.0 | 0.00 | 0.00 | 0.00 | 75 | 1014.1 |
| 20260904132618 | 60 | 103 | 2.0 | 3.0 | 0.00 | 0.00 | 0.00 | 72 | 1014.0 |
| 20260904131617 | 60 | 108 | 2.0 | 3.0 | 0.00 | 0.00 | 0.00 | 74 | 1014.1 |
| 20260904130617 | 60 | 94 | 2.0 | 3.0 | 0.00 | 0.00 | 0.00 | 67 | 1014.1 |
| 20260904125617 | 60 | 118 | 3.0 | 4.0 | 0.00 | 0.00 | 0.00 | 75 | 1014.1 |
| 20260904124618 | 60 | 103 | 3.0 | 4.0 | 0.00 | 0.00 | 0.00 | 72 | 1014.2 |
| 20260904123617 | 59 | 90 | 2.0 | 3.0 | 0.00 | 0.00 | 0.00 | 78 | 1014.3 |
| 20260904122617 | 59 | 109 | 3.0 | 4.0 | 0.00 | 0.00 | 0.00 | 82 | 1014.4 |
| 20260904121617 | 59 | 106 | 2.0 | 3.0 | 0.00 | 0.00 | 0.00 | 81 | 1014.6 |
| 20260904120657 | 60 | 102 | 2.0 | 2.0 | 0.00 | 0.00 | 0.00 | 81 | 1014.7 |
| 20260904115617 | 60 | 98 | 2.0 | 3.0 | 0.00 | 0.00 | 0.00 | 83 | 1014.7 |
| 20260904114618 | 59 | 104 | 2.0 | 3.0 | 0.00 | 0.00 | 0.00 | 81 | 1014.8 |
| 20260904113618 | 59 | 126 | 1.0 | 3.0 | 0.00 | 0.00 | 0.00 | 81 | 1014.9 |
| 20260904112618 | 59 | 109 | 3.0 | 4.0 | 0.00 | 0.00 | 0.00 | 82 | 1015.1 |
| 20260904111617 | 59 | 124 | 2.0 | 3.0 | 0.00 | 0.00 | 0.00 | 81 | 1015.2 |
| 20260904110637 | 59 | 91 | 1.0 | 2.0 | 0.00 | 0.00 | 0.00 | 82 | 1015.2 |
| 20260904105618 | 59 | 99 | 2.0 | 3.0 | 0.00 | 0.00 | 0.00 | 81 | 1015.4 |
| 20260904104618 | 59 | 98 | 2.0 | 3.0 | 0.00 | 0.00 | 0.00 | 85 | 1015.6 |
| 20260904103617 | 60 | 114 | 2.0 | 4.0 | 0.00 | 0.00 | 0.00 | 84 | 1015.5 |
| 20260904102617 | 60 | 111 | 2.0 | 2.0 | 0.00 | 0.00 | 0.00 | 85 | 1015.8 |
| 20260904101637 | 61 | 106 | 2.0 | 3.0 | 0.00 | 0.00 | 0.00 | 83 | 1015.9 |
| 20260904100658 | 61 | 89 | 1.0 | 2.0 | 0.00 | 0.00 | 0.00 | 83 | 1016.0 |
| 20260904095618 | 61 | 102 | 3.0 | 3.0 | 0.00 | 0.00 | 0.00 | 84 | 1016.1 |
| 20260904094617 | 60 | 90 | 2.0 | 3.0 | 0.00 | 0.00 | 0.00 | 81 | 1016.2 |
| 20260904093617 | 60 | 102 | 2.0 | 3.0 | 0.00 | 0.00 | 0.00 | 85 | 1016.1 |
| 20260904092617 | 60 | 101 | 2.0 | 3.0 | 0.00 | 0.00 | 0.00 | 85 | 1016.2 |
| 20260904091617 | 60 | 112 | 2.0 | 3.0 | 0.00 | 0.00 | 0.00 | 87 | 1016.3 |
| 20260904090618 | 61 | 107 | 2.0 | 3.0 | 0.00 | 0.00 | 0.00 | 86 | 1016.4 |